| time (UTC) | temp F | wind direction | speed MPH | gust MPH | rain 1hr in | rain 24hr in | rain mn in | humidity % | barometer mb |
| 20260504141016 | 53 | 225 | 2.0 | 6.0 | 0.00 | 0.00 | 0.00 | 57 | 989.8 |
| 20260504081017 | 46 | 293 | 1.0 | 4.0 | 0.00 | 0.00 | 0.00 | 52 | 989.9 |
| 20260504050017 | 43 | 225 | 2.0 | 10.0 | 0.00 | 0.00 | 0.00 | 55 | 995.0 |
| 20260504045017 | 42 | 0.0 | 2.0 | 0.00 | 0.00 | 0.00 | 60 | 995.1 | |
| 20260504044017 | 41 | 0.0 | 3.0 | 0.00 | 0.00 | 0.00 | 63 | 995.3 | |
| 20260504043017 | 40 | 0.0 | 2.0 | 0.00 | 0.00 | 0.00 | 63 | 995.5 | |
| 20260504042037 | 40 | 0.0 | 0.0 | 0.00 | 0.00 | 0.00 | 63 | 995.8 | |
| 20260504041017 | 40 | 225 | 1.0 | 3.0 | 0.00 | 0.00 | 0.00 | 64 | 996.1 |
| 20260504040017 | 39 | 225 | 1.0 | 3.0 | 0.00 | 0.00 | 0.00 | 65 | 995.8 |
| 20260504035037 | 40 | 0.0 | 1.0 | 0.00 | 0.00 | 0.00 | 63 | 996.1 | |
| 20260504034057 | 41 | 0.0 | 1.0 | 0.00 | 0.00 | 0.00 | 62 | 996.2 | |
| 20260504033017 | 41 | 0.0 | 1.0 | 0.00 | 0.00 | 0.00 | 61 | 996.4 | |
| 20260504032017 | 43 | 0.0 | 3.0 | 0.00 | 0.00 | 0.00 | 58 | 996.6 | |
| 20260504031017 | 42 | 225 | 1.0 | 2.0 | 0.00 | 0.00 | 0.00 | 59 | 996.9 |
| 20260504030017 | 42 | 225 | 1.0 | 2.0 | 0.00 | 0.00 | 0.00 | 60 | 997.1 |
| 20260504025037 | 43 | 225 | 1.0 | 4.0 | 0.00 | 0.00 | 0.00 | 58 | 997.6 |
| 20260504024017 | 43 | 225 | 1.0 | 2.0 | 0.00 | 0.00 | 0.00 | 57 | 997.7 |
| 20260504023017 | 44 | 225 | 1.0 | 4.0 | 0.00 | 0.00 | 0.00 | 56 | 998.0 |
| 20260504022017 | 43 | 0.0 | 2.0 | 0.00 | 0.00 | 0.00 | 57 | 998.1 | |
| 20260504021017 | 43 | 0.0 | 0.0 | 0.00 | 0.00 | 0.00 | 57 | 998.2 | |
| 20260504020037 | 44 | 0.0 | 1.0 | 0.00 | 0.00 | 0.00 | 56 | 998.3 | |
| 20260504015037 | 44 | 0.0 | 2.0 | 0.00 | 0.00 | 0.00 | 55 | 998.6 | |
| 20260504014016 | 44 | 225 | 1.0 | 3.0 | 0.00 | 0.00 | 0.00 | 54 | 998.8 |
| 20260504013017 | 45 | 0.0 | 0.0 | 0.00 | 0.00 | 0.00 | 53 | 999.0 | |
| 20260504012017 | 46 | 0.0 | 0.0 | 0.00 | 0.00 | 0.00 | 50 | 999.1 | |
| 20260504011016 | 47 | 0.0 | 0.0 | 0.00 | 0.00 | 0.00 | 48 | 999.2 | |
| 20260504010016 | 48 | 0.0 | 2.0 | 0.00 | 0.00 | 0.00 | 46 | 999.3 | |
| 20260504005016 | 49 | 0.0 | 1.0 | 0.00 | 0.00 | 0.00 | 43 | 999.2 | |
| 20260504004016 | 56 | 225 | 2.0 | 6.0 | 0.00 | 0.00 | 0.00 | 32 | 999.5 |
| 20260504003016 | 64 | 225 | 1.0 | 11.0 | 0.00 | 0.00 | 0.00 | 20 | 999.6 |
| 20260504002017 | 64 | 0.0 | 1.0 | 0.00 | 0.00 | 0.00 | 19 | 999.6 | |
| 20260504001056 | 65 | 338 | 2.0 | 6.0 | 0.00 | 0.00 | 0.00 | 19 | 999.9 |
| 20260504000016 | 65 | 293 | 2.0 | 6.0 | 0.00 | 0.00 | 0.00 | 18 | 999.9 |
| 20260503235016 | 65 | 293 | 2.0 | 8.0 | 0.00 | 0.00 | 0.00 | 17 | 999.9 |
| 20260503234017 | 65 | 338 | 4.0 | 14.0 | 0.00 | 0.00 | 0.00 | 17 | 999.9 |
| 20260503233016 | 65 | 270 | 4.0 | 10.0 | 0.00 | 0.00 | 0.00 | 17 | 1000.0 |
| 20260503232016 | 65 | 270 | 6.0 | 18.0 | 0.00 | 0.00 | 0.00 | 17 | 1000.1 |
| 20260503231036 | 65 | 225 | 4.0 | 10.0 | 0.00 | 0.00 | 0.00 | 17 | 1000.2 |
| 20260503230056 | 65 | 0 | 5.0 | 18.0 | 0.00 | 0.00 | 0.00 | 17 | 1000.4 |
| 20260503225036 | 66 | 225 | 4.0 | 11.0 | 0.00 | 0.00 | 0.00 | 16 | 1000.5 |
| 20260503224036 | 67 | 315 | 5.0 | 14.0 | 0.00 | 0.00 | 0.00 | 15 | 1000.5 |
| 20260503223037 | 67 | 338 | 8.0 | 21.0 | 0.00 | 0.00 | 0.00 | 15 | 1000.5 |
| 20260503222016 | 67 | 225 | 5.0 | 14.0 | 0.00 | 0.00 | 0.00 | 15 | 1000.6 |
| 20260503221016 | 67 | 248 | 4.0 | 14.0 | 0.00 | 0.00 | 0.00 | 15 | 1000.6 |
| 20260503220036 | 68 | 338 | 3.0 | 11.0 | 0.00 | 0.00 | 0.00 | 15 | 1000.5 |
| 20260503215016 | 68 | 270 | 4.0 | 12.0 | 0.00 | 0.00 | 0.00 | 14 | 1000.6 |
| 20260503214016 | 68 | 338 | 6.0 | 14.0 | 0.00 | 0.00 | 0.00 | 13 | 1000.6 |
| 20260503213016 | 67 | 338 | 3.0 | 8.0 | 0.00 | 0.00 | 0.00 | 12 | 1000.7 |
| 20260503212016 | 67 | 248 | 4.0 | 15.0 | 0.00 | 0.00 | 0.00 | 11 | 1000.7 |
| 20260503211036 | 67 | 315 | 7.0 | 18.0 | 0.00 | 0.00 | 0.00 | 8 | 1000.8 |
| 20260503210036 | 67 | 338 | 6.0 | 17.0 | 0.00 | 0.00 | 0.00 | 8 | 1001.0 |
| 20260503205016 | 67 | 225 | 5.0 | 13.0 | 0.00 | 0.00 | 0.00 | 8 | 1001.1 |
| 20260503204016 | 68 | 315 | 3.0 | 8.0 | 0.00 | 0.00 | 0.00 | 7 | 1001.0 |
| 20260503203016 | 68 | 203 | 3.0 | 9.0 | 0.00 | 0.00 | 0.00 | 8 | 1001.4 |
| 20260503202016 | 67 | 293 | 5.0 | 17.0 | 0.00 | 0.00 | 0.00 | 9 | 1001.3 |
| 20260503201016 | 67 | 338 | 6.0 | 14.0 | 0.00 | 0.00 | 0.00 | 9 | 1001.5 |
| 20260503200016 | 67 | 338 | 10.0 | 23.0 | 0.00 | 0.00 | 0.00 | 8 | 1001.5 |
| 20260503195016 | 66 | 45 | 6.0 | 17.0 | 0.00 | 0.00 | 0.00 | 7 | 1001.5 |
| 20260503194016 | 66 | 338 | 8.0 | 17.0 | 0.00 | 0.00 | 0.00 | 6 | 1001.7 |
| 20260503193016 | 66 | 338 | 5.0 | 13.0 | 0.00 | 0.00 | 0.00 | 10 | 1001.8 |
| 20260503192016 | 66 | 338 | 8.0 | 21.0 | 0.00 | 0.00 | 0.00 | 10 | 1001.8 |
| 20260503191016 | 67 | 23 | 7.0 | 16.0 | 0.00 | 0.00 | 0.00 | 7 | 1002.0 |
| 20260503190016 | 68 | 315 | 5.0 | 15.0 | 0.00 | 0.00 | 0.00 | 11 | 1002.0 |
| 20260503185016 | 68 | 203 | 4.0 | 21.0 | 0.00 | 0.00 | 0.00 | 11 | 1002.0 |
| 20260503184016 | 67 | 225 | 5.0 | 12.0 | 0.00 | 0.00 | 0.00 | 14 | 1002.1 |
| 20260503183016 | 67 | 338 | 7.0 | 19.0 | 0.00 | 0.00 | 0.00 | 11 | 1002.1 |
| 20260503182016 | 66 | 68 | 3.0 | 9.0 | 0.00 | 0.00 | 0.00 | 14 | 1002.2 |
| 20260503181016 | 66 | 90 | 3.0 | 12.0 | 0.00 | 0.00 | 0.00 | 13 | 1002.3 |
| 20260503180016 | 65 | 23 | 7.0 | 17.0 | 0.00 | 0.00 | 0.00 | 13 | 1002.5 |
| 20260503175036 | 66 | 45 | 6.0 | 16.0 | 0.00 | 0.00 | 0.00 | 14 | 1002.6 |
| 20260503174015 | 66 | 315 | 7.0 | 15.0 | 0.00 | 0.00 | 0.00 | 12 | 1002.6 |
| 20260503173016 | 66 | 23 | 8.0 | 20.0 | 0.00 | 0.00 | 0.00 | 14 | 1002.5 |
| 20260503172016 | 66 | 338 | 3.0 | 10.0 | 0.00 | 0.00 | 0.00 | 15 | 1002.6 |
| 20260503171016 | 66 | 225 | 5.0 | 16.0 | 0.00 | 0.00 | 0.00 | 15 | 1002.7 |